Find GalileoSat-2

NORAD ID: 37847 Int'l Des: 2011-060 Owner: ESA/GSAEU Country: I-ESA Constellation: Galileo operational
MEOCIRCULAR

当前视图

正在加载3D地球...

About GalileoSat-2

GalileoSat-2 (NORAD 37847) is a Galileo constellation satellite launched Oct 21, 2011 by ESA/GSAEU of I-ESA. It operates in MEO, CIRCULAR orbit with a mass of 700.00 kg.

关于 GalileoSat-2

正在加载描述...

即将过境

Passes for default location (London). Set your location on the main map for personalized predictions.

高度历史

Loading altitude history...

两行轨道根数

1 37847U 11060B 26193.00368770 -.00000088 00000-0 00000+0 0 9995
2 37847 56.9863 341.0894 0002306 10.3981 353.6194 1.70475812 91556
Epoch: Jul 12, 2026 • Age: 61 hours

当前状态

高度 23229.3 km
远地点 / 近地点 N/A
速度 3.67 km/s
星下点 39.63°N, 4.11°W
发射日期 Oct 21, 2011
运行时间 14.7 years
类型 navigation

技术详情

分类 Payload
质量 700.00 kg
干质量 700.00 kg
总质量 700.00 kg
长度 2.70 m
直径 1.60 m
跨度 14.50 m
形状 Box + 2 Pan
制造商 EADSB/THALR
平台类型 GalileoSat
阶段状态 In Orbit
所有者/国家 ESA/GSAEU/I-ESA

Most Searched